Back to catalog

COSMOS 546

AliveNavigationVLEO
NORAD 6350·PAYLOAD·🇷🇺 Russia

Launched Jan 26, 1973 from Kapustin Yar

Loading…

Next Passes (next 24 hours)

TLE

FreshSource: Space-Track

Epoch: Sep 13, 2026, 22:13 UTC

1  6350U 73005A   26256.92577425  .00001588  00000-0  65217-4 0  9998
2  6350  50.6345  86.0833 0014635 277.8965  82.0341 15.30443579956818

Track COSMOS 546 in real time with AllMySat

Download on the App Store